Weather in Nordhausen

Germany     51°29′50″N   10°47′08″E
temp.,
°C
wind,
m/s
gust,
m/s
humid.,
%
clouds,
%
prec.,
mm/h
press.,
hPa
HPBL,
m
24 september, fri
fri2423:00+14wnw81582100 0.1 10141161
02:00+13w71386100 0.1 1014925
05:00+12wnw7128384 0.1 1015857
08:00+12wnw5128957 0.1 1016768
11:00+14w51182100 0.0 1016856
14:00+15w51080100 0.0 1016823
17:00+18w597362 0.1 10151075
20:00+16wsw398099 0.1 1015358
25 september, sat
sat2523:00+13w39910 0.0 1016263
02:00+11wsw22964 0.0 101628
05:00+11wsw22966 0.0 101620
08:00+11wsw12954 0.0 101741
11:00+17w35680 0.0 1017677
14:00+21w34500 0.0 10171082
17:00+21w234929 0.0 10161222
20:00+15ne11715 0.0 101711
26 september, sun
sun2623:00+13ene1178100 0.0 101811
02:00+12ene118496 0.0 101811
05:00+12e11875 0.0 101811
08:00+12e118591 0.0 101712
11:00+17sse236499 0.0 1017280
14:00+21ssw345517 0.0 1017847
17:00+21sw2467100 0.0 1015221
20:00+18ese11809 0.1 101511
27 september, mon
mon2723:00+15sse119288 1.9 101611
02:00+15sse1194100 3.3 101611
05:00+15wsw1196100 0.4 101613
08:00+14wsw119775 0.4 101622
11:00+16wsw249395 0.5 1017173
14:00+20wsw4667100 0.6 1018858
17:00+19wsw4770100 0.4 1018735
20:00+15w3788100 0.6 1020188
28 september, tue
tue2823:00+14wnw41092100 0.0 1022483
02:00+12wnw378634 0.1 1024373
05:00+8nw2295100 0.0 102639
08:00+8nw1289100 0.0 102656
11:00+13ne1259100 0.0 1025575
14:00+16e334877 0.0 10241024
17:00+15e3356100 0.0 1022962
20:00+11ene2573100 0.0 1022102